Hourly Data Report for October 27, 2014

All times are specified in Local Standard Time (LST). Add 1 hour to adjust for Daylight Saving Time where and when it is observed.

POND INLET A
NUNAVUT

72°41'22.000" N
77°58'08.000" W
61.60 m
2403206
71095
YIO

Download Data

Hourly Data (October 2014)
Hourly Data Report for October 27, 2014
Temp Definition
°C
Dew Point Temp Definition
°C
Rel Hum Definition
%
Wind Dir Definition
10's deg

Wind Spd Definition
km/h
Visibility Definition
km
Stn Press Definition
kPa
Hmdx Definition


Wind Chill Definition


Weather Definition


TIME
00:00 Legend Double Dagger -13.8 -15.6 86 15 17 16.1 101.31   -22 LegendNANA
01:00 Legend Double Dagger -13.4 -15.4 85 14 15 16.1 101.30   -21 LegendNANA
02:00 Legend Double Dagger -13.0 -15.2 84 15 13 16.1 101.31   -20 LegendNANA
03:00 Legend Double Dagger -13.7 -16.0 83 16 17 16.1 101.32   -22 LegendNANA
04:00 Legend Double Dagger -13.2 -15.7 82 14 17 16.1 101.33   -21 LegendNANA
05:00 Legend Double Dagger -14.0 -15.9 86 13 11 16.1 101.32   -20 LegendNANA
06:00 Legend Double Dagger -13.3 -16.0 81 15 13 16.1 101.30   -20 LegendNANA
07:00 Legend Double Dagger -13.4 -16.5 78 15 17 16.1 101.31   -21 LegendNANA
08:00 Legend Double Dagger -14.0 -16.9 79 14 17 16.1 101.31   -22 LegendNANA
09:00 Legend Double Dagger -13.5 -15.1 88 14 11 16.1 101.31   -20 LegendNANA
10:00 Legend Double Dagger -12.2 -13.6 90 14 8 16.1 101.29   -17 LegendNANA
11:00 Legend Double Dagger -12.5 -13.8 90 14 11 16.1 101.28   -19 LegendNANA
12:00 Legend Double Dagger -12.8 -15.0 84 14 11 16.1 101.28   -19 LegendNANA
13:00 Legend Double Dagger -12.0 -14.3 83 10 8 16.1 101.27   -17 LegendNANA
14:00 Legend Double Dagger -11.1 -13.1 85 8 5 16.1 101.25   -14 LegendNANA
15:00 Legend Double Dagger -11.7 -13.6 86 10 5 16.1 101.25   -15 LegendNANA
16:00 Legend Double Dagger -11.3 -12.6 90 9 4 16.1 101.24   -14 LegendNANA
17:00 Legend Double Dagger -11.1 -12.6 89 6 4 16.1 101.20   -14 LegendNANA
18:00 Legend Double Dagger -12.0 -14.5 82 14 13 16.1 101.17   -19 LegendNANA
19:00 Legend Double Dagger -11.4 -14.8 76 15 13 16.1 101.13   -18 LegendNANA
20:00 Legend Double Dagger -12.5 -16.2 74 15 18 16.1 101.09   -21 LegendNANA
21:00 Legend Double Dagger -11.2 -15.5 71 15 17 16.1 101.06   -19 LegendNANA
22:00 Legend Double Dagger -10.2 -13.9 75 15 11 16.1 101.01   -16 LegendNANA
23:00 Legend Double Dagger -10.4 -13.6 78 16 9 16.1 100.99   -15 LegendNANA

Notes on Data Quality.

Legend

  • E = Estimated
  • M = Missing
  • NA = Not Available
  • ‡ = Partner data that is not subject to review by the National Climate Archives
Date modified: